Regional Weather Roundup
Issued by NWS

Home | Current Version | Previous Version | Graphics & Text | Print | Product List | Glossary Off
Versions: 1 2 3 4 5 6 7 8 9 10 11 12 13 14 15 16 17 18 19 20 21 22 23 24 25 26 27 28 29 30 31 32 33 34 35 36 37 38 39 40 41 42 43 44 45 46 47 48 49 50

000
ASUS43 KFSD 180510
RWRSD

WEATHER ROUNDUP FOR SOUTH DAKOTA
NATIONAL WEATHER SERVICE SIOUX FALLS SD
1100 PM CST WED DEC 17 2014

NOTE: "FAIR" INDICATES FEW OR NO CLOUDS BELOW 12,000 FEET WITH NO
SIGNIFICANT WEATHER AND/OR OBSTRUCTIONS TO VISIBILITY.


SDZ001>005-009-010-012>017-180600-
NORTHWEST AND NORTH CENTRAL SOUTH DAKOTA

CITY           SKY/WX    TMP DP  RH WIND       PRES   REMARKS
BUFFALO          N/A     21  18  88 S8        29.92F WCI  11
FAITH            N/A     20  15  81 SE13      30.05F WCI   7
MOBRIDGE       CLOUDY    18  13  80 S12       30.14F WCI   5
$$

SDZ012>016-024>037-041>051-057-063-072>074-180600-
SOUTHWEST AND SOUTH CENTRAL SOUTH DAKOTA

CITY           SKY/WX    TMP DP  RH WIND       PRES   REMARKS
RAPID CTY ARPT CLOUDY    22  20  92 SE6       30.00S WCI  14
PIERRE         CLOUDY    17  15  92 SE13      30.16S WCI   4
CUSTER         CLEAR     21  16  81 NW5       29.89F WCI  15
ELLSWORTH AFB  CLOUDY    22  20  94 SE5       29.99  WCI  16
PHILIP         CLOUDY    22  18  85 E9        30.09R WCI  12
PINE RIDGE     CLOUDY    19  17  92 SW6       30.03R FOG     WCI  11
SPEARFISH      FOG       10   9  92 MISG      29.95F VSB 3/4
WINNER         CLOUDY    22  19  89 SE12      30.14F WCI  10
$$

SDZ004>011-016>023-039-040-180600-
NORTHEAST SOUTH DAKOTA

CITY           SKY/WX    TMP DP  RH WIND       PRES   REMARKS
ABERDEEN       CLOUDY    13   9  84 SE3       30.26S
WATERTOWN      PTCLDY     5   2  87 CALM      30.23R
SISSETON         N/A     -1  -3  91 CALM      30.28R
$$

SDZ017-020-022-023-036>040-048>070-180600-
SOUTHEAST SOUTH DAKOTA

CITY           SKY/WX    TMP DP  RH WIND       PRES   REMARKS
SIOUX FALLS    MOCLDY     9   5  84 CALM      30.26S
HURON          CLOUDY    12   9  87 SE6       30.25F WCI   3
CHAMBERLAIN    CLOUDY    16  14  90 SE12      30.19S WCI   3
MITCHELL       CLOUDY    14  11  87 SE6       30.27S WCI   5
YANKTON        CLOUDY    16  10  79 CALM      30.28S
$$

ABBREVIATIONS USED IN REMARKS
   TC - TEMPERATURE IN CELSIUS
  WCI - WIND CHILL INDEX
   HX - HEAT INDEX
  VSB - VISIBILITY



USA.gov is the U.S. government's official web portal to all federal, state and local government web resources and services.